Search your local weather  

 

Hazardous Weather Conditions

No active alerts for LOS ANGELES, CALIFORNIA

Current Conditions: LOS ANGELES, CALIFORNIA

Clear


75.9 F

Last Updated on Jul 17 2024, 10:51 AM PDT
Humidity: 62%
Wind Speed: 4.7 mph
Barometer: 29.99 in
Dewpoint: 62.1 F
Visibility: 10.00 mi
Precip: --
Heat Index: 76.1 F
Wind Chill: NA
Current conditions at:

SANTA MONICA (KSMO)

Lat: 34.02 Lon: -118.45

active severe weather and emergency alerts image weather storm and storm spotter reports image weather observation monitoring service image
Active
Alerts
Storm Reports Weather
Monitoring

5 Day Forecast for LOS ANGELES, CALIFORNIA (90001)

Wednesday

Overnight Fog
High 82 °F
Wednesday
Night
Overnight Fog
Low 65 °F
Thursday

High 83 °F
Thursday
Night
Low 67 °F
Friday

High 87 °F
Friday
Night
Low 68 °F
Saturday

High 89 °F
Saturday
Night
Low 68 °F
Sunday

High 88 °F

Sign-up For Email & Text Message Weather Alert Notification Services



Advertise Here

Observation History for LOS ANGELES, CALIFORNIA


Time Wind
(mph)
Vis
(mi)
Weather Precip (in) Temperature (F) Relative
Humidity
Wind
Chill
(F)
Heat
Index
(F)
Pressure
Air Dwpt altimeter
(in)
sea level
(mb)
10:51 AM PDT 4.7 10.00 Clear -- 75.9 62.1 62% NA 76.1 29.99 1015.6
09:51 AM PDT SE 3.4 10.00 Clear -- 73.0 62.1 68% NA 73.2 29.99 1015.6
07:51 AM PDT 0.0 10.00 Clear -- 69.1 62.1 78% NA NA 29.99 1015.6
06:51 AM PDT 0.0 10.00 Clear -- 66.9 61.0 81% NA NA 29.98 1015.2
05:51 AM PDT 0.0 10.00 Mostly Clear -- 64.9 60.1 84% NA NA 29.96 1014.6
04:51 AM PDT 0.0 10.00 Clear -- 66.0 60.1 81% NA NA 29.95 1014.2
03:51 AM PDT 0.0 10.00 Clear -- 66.0 59.0 78% NA NA 29.95 1014.2
02:51 AM PDT 0.0 10.00 Clear -- 66.0 57.9 75% NA NA 29.95 1014.2
01:51 AM PDT 0.0 10.00 Clear -- 66.0 57.9 75% NA NA 29.94 1013.9
12:51 AM PDT 0.0 10.00 Clear -- 66.0 59.0 78% NA NA 29.94 1013.9
11:51 PM PDT 0.0 10.00 Clear -- 66.0 60.1 81% NA NA 29.95 1014.2
10:51 PM PDT S 4.7 10.00 Clear -- 66.0 61.0 84% NA NA 29.95 1014.2
09:51 PM PDT S 4.7 10.00 Clear -- 66.9 60.1 79% NA NA 29.94 1013.9
08:51 PM PDT 4.7 10.00 Clear -- 68.0 61.0 78% NA NA 29.94 1013.6
07:51 PM PDT 5.8 10.00 Clear -- 69.1 60.1 73% NA NA 29.94 1013.6
06:51 PM PDT SW 6.9 10.00 Clear -- 71.1 59.0 66% NA 70.9 29.92 1013.2
05:51 PM PDT 10.3 10.00 Clear -- 73.0 59.0 61% NA 72.9 29.94 1013.6
04:51 PM PDT 8.1 10.00 Clear -- 73.9 61.0 64% NA 74.1 29.94 1013.9
03:51 PM PDT SW 10.3 10.00 Clear -- 75.0 62.1 64% NA 75.2 29.96 1014.6
02:51 PM PDT SW 12.8 10.00 Clear -- 73.9 62.1 66% NA 74.1 29.97 1014.9
01:51 PM PDT 10.3 10.00 Clear -- 73.0 62.1 68% NA 73.2 29.99 1015.6
12:51 PM PDT 9.2 10.00 Clear -- 73.9 63.0 69% NA 74.3 30.00 1015.9
11:51 AM PDT SW 9.2 10.00 Clear -- 73.9 62.1 66% NA 74.1 30.01 1016.3
10:51 AM PDT 6.9 10.00 Clear -- 75.9 62.1 62% NA 76.1 30.01 1016.3

Regional Weather Observation

SANTA MONICA (KSMO)

Clear
75.9 F

(KCQT)


F

HAWTHORNE (KHHR)

Clear
71.1 F

LOS ANGELES (KLAX)

Mostly Cloudy
75.0 F

BURBANK (KBUR)

Clear
72.0 F

VAN NUYS (KVNY)

Clear
78.1 F

Advertise Here


Advertise Here